Regional Weather Roundup
Issued by NWS

Home | Current Version | Previous Version | Text Only | Print | Product List | Glossary On
Versions: 1 2 3 4 5 6 7 8 9 10 11 12 13 14 15 16 17 18 19 20 21 22 23 24 25 26 27 28 29 30 31 32 33 34 35 36 37 38 39 40 41 42 43 44 45 46 47 48 49 50
000
ASCA42 TJSJ 201111
RWRPR
PUERTO RICO/U.S. VIRGIN ISLANDS HOURLY WEATHER ROUNDUP
NATIONAL WEATHER SERVICE SAN JUAN PR
700 AM AST SUN APR 20 2014

PRZ001-004-201200-
PUERTO RICO

CITY           SKY/WX    TMP DP  RH WIND       PRES   REMARKS
SAN JUAN LMM   MOSUNNY   77  70  78 CALM      30.07R
AGUADILLA      PTSUNNY   73  68  83 E7        30.07
CEIBA          MOSUNNY   79  70  73 E10       30.10R
$$

PRZ006-007-201200-
U.S. VIRGIN ISLANDS

CITY           SKY/WX    TMP DP  RH WIND       PRES   REMARKS
CHARLOTTE AMA  SUNNY     79  72  78 E17G24    30.07R
$$

HOURLY WEATHER ROUNDUP FOR THE NEWS MEDIA

CITY           SKY/WX    TMP DP  RH WIND       PRES   REMARKS
MIAMI          MOCLDY    66  59  78 NW6       30.00R
ORLANDO        CLOUDY    62  59  90 N9        30.01R
NEW YORK       MOCLDY    46  28  49 NE9       30.47R
NEWARK         MOCLDY    48  30  49 NE14      30.46R
CHICAGO        PTCLDY    44  28  53 S7        30.21S
HARTFORD       SUNNY     38  28  67 N5        30.47R WCI  34
BOSTON         SUNNY     42  23  46 N8        30.50R
DALLAS         CLOUDY    65  55  70 S8        30.09S
PHILADELPHIA   CLOUDY    48  34  58 E17       30.43R



USA.gov is the U.S. government's official web portal to all federal, state and local government web resources and services.